Date String (YYYY-MM-DD hh:mm:ss) UTC,Instrument flags,Ambient pressure (hPa),Sample flow (lpm),Bypass flow (lpm),Sample temperature (°C),Ambient temperature (°C),ASC tube jacket temperature (°C),LED temperature (°C),Box temperature (°C),Sample RH (%),Span deviation,Mass concentration (μg/m³),Mass concentration (μg/m³),Mass concentration (μg/m³)
DateTimeUTC,F1_M11,P_M11,Q1_M11,Q2_M11,T1_M11,T2_M11,T3_M11,T4_M11,T5_M11,U1_M11,ZSPAN_M11,X0_M11,X2_M11,X1_M11
2022-12-15 22:00:00,,0820.6,5.00,0.00,21.8,21.1,00.0,30.6,23.6,07.1,0000.0,0010.24,0004.32,0003.69
2022-12-15 22:01:00,,0820.6,5.00,0.00,21.7,20.7,00.0,30.6,23.5,07.1,0000.0,0009.92,0004.31,0003.69
2022-12-15 22:02:00,,0820.6,5.03,0.00,21.7,20.5,00.0,30.6,23.5,07.1,0000.0,0010.04,0004.30,0003.69
2022-12-15 22:03:00,,0820.5,4.95,0.00,21.7,20.4,00.0,30.6,23.4,07.1,0000.0,0010.34,0004.30,0003.69
2022-12-15 22:04:00,,0820.5,5.05,0.00,21.7,20.2,00.0,30.6,23.4,07.1,0000.0,0010.33,0004.27,0003.69
2022-12-15 22:05:00,,0820.6,4.95,0.00,21.7,20.1,00.0,30.6,23.3,07.1,0000.0,0010.45,0004.26,0003.70
2022-12-15 22:06:00,,0820.6,5.05,0.00,21.6,20.0,00.0,30.6,23.3,07.1,0000.0,0010.49,0004.28,0003.70
2022-12-15 22:07:00,,0820.5,4.96,0.00,21.6,20.0,00.0,30.6,23.3,07.3,0000.0,0010.51,0004.29,0003.70
2022-12-15 22:08:00,,0820.5,5.04,0.00,21.6,19.9,00.0,30.6,23.3,07.3,0000.0,0010.61,0004.29,0003.70
2022-12-15 22:09:00,,0820.5,4.96,0.00,21.6,19.9,00.0,30.6,23.3,07.4,0000.0,0011.16,0004.31,0003.70
2022-12-15 22:10:00,,0820.5,5.03,0.00,21.5,19.9,00.0,30.6,23.2,07.2,0000.0,0010.60,0004.31,0003.70
2022-12-15 22:11:00,,0820.5,4.98,0.00,21.5,19.8,00.0,30.6,23.2,07.2,0000.0,0010.42,0004.35,0003.70
2022-12-15 22:12:00,,0820.5,5.02,0.00,21.5,19.8,00.0,30.5,23.2,07.2,0000.0,0010.76,0004.41,0003.71
2022-12-15 22:13:00,,0820.6,5.01,0.00,21.5,19.7,00.0,30.5,23.1,07.2,0000.0,0010.77,0004.44,0003.71
2022-12-15 22:14:00,,0820.6,4.98,0.00,21.5,19.7,00.0,30.5,23.1,07.2,0000.0,0010.80,0004.49,0003.71
2022-12-15 22:15:00,,0820.6,5.01,0.00,21.5,19.7,00.0,30.5,23.1,07.2,0000.0,0011.51,0004.55,0003.72
2022-12-15 22:16:00,,0820.6,5.02,0.00,21.4,19.7,00.0,30.5,23.1,07.2,0000.0,0012.60,0004.63,0003.72
2022-12-15 22:17:00,,0820.6,4.97,0.00,21.4,19.7,00.0,30.5,23.1,07.3,0000.0,0012.60,0004.60,0003.71
2022-12-15 22:18:00,,0820.6,5.04,0.00,21.4,19.8,00.0,30.4,23.1,07.2,0000.0,0013.14,0004.61,0003.72
2022-12-15 22:19:00,,0820.6,4.96,0.00,21.5,20.7,00.0,30.4,23.3,07.2,0000.0,0014.15,0004.63,0003.72
2022-12-15 22:20:00,,0820.6,5.02,0.00,21.6,21.8,00.0,30.4,23.6,07.1,0000.0,0014.10,0004.64,0003.74
2022-12-15 22:21:00,,0820.5,5.02,0.00,21.7,21.9,00.0,30.4,23.7,07.0,0000.0,0014.60,0004.65,0003.74
2022-12-15 22:22:00,,0820.6,4.96,0.00,21.7,21.5,00.0,30.5,23.6,07.0,0000.0,0014.71,0004.63,0003.74
2022-12-15 22:23:00,,0820.6,5.02,0.00,21.7,21.1,00.0,30.5,23.6,06.9,0000.0,0014.22,0004.57,0003.72
2022-12-15 22:24:00,,0820.6,4.96,0.00,21.7,20.9,00.0,30.5,23.5,07.0,0000.0,0013.45,0004.51,0003.70
2022-12-15 22:25:00,,0820.6,5.00,0.00,21.7,20.8,00.0,30.5,23.5,07.0,0000.0,0013.13,0004.46,0003.69
2022-12-15 22:26:00,,0820.6,5.04,0.00,21.8,20.7,00.0,30.6,23.6,07.0,0000.0,0012.41,0004.38,0003.67
2022-12-15 22:27:00,,0820.6,4.96,0.00,21.8,20.6,00.0,30.6,23.6,07.0,0000.0,0011.43,0004.30,0003.66
2022-12-15 22:28:00,,0820.6,5.05,0.00,21.7,20.5,00.0,30.6,23.5,06.9,0000.0,0011.74,0004.28,0003.65
2022-12-15 22:29:00,,0820.6,4.95,0.00,21.8,20.5,00.0,30.6,23.5,06.9,0000.0,0011.62,0004.27,0003.63
2022-12-15 22:30:00,,0820.6,5.05,0.00,21.8,20.5,00.0,30.6,23.6,07.0,0000.0,0010.87,0004.23,0003.63
2022-12-15 22:31:00,,0820.6,4.96,0.00,21.8,20.5,00.0,30.6,23.6,07.0,0000.0,0010.52,0004.22,0003.61
2022-12-15 22:32:00,,0820.6,5.04,0.00,21.8,20.4,00.0,30.6,23.5,07.0,0000.0,0009.93,0004.20,0003.60
2022-12-15 22:33:00,,0820.6,4.96,0.00,21.8,20.4,00.0,30.6,23.5,07.0,0000.0,0009.59,0004.18,0003.60
2022-12-15 22:34:00,,0820.6,5.03,0.00,21.7,20.4,00.0,30.6,23.5,07.0,0000.0,0009.94,0004.20,0003.61
2022-12-15 22:35:00,,0820.6,4.97,0.00,21.7,20.4,00.0,30.6,23.5,07.1,0000.0,0010.55,0004.20,0003.62
2022-12-15 22:36:00,,0820.6,5.01,0.00,21.7,20.3,00.0,30.6,23.5,07.1,0000.0,0010.72,0004.20,0003.62
2022-12-15 22:37:00,,0820.6,5.02,0.00,21.7,20.3,00.0,30.6,23.5,07.0,0000.0,0011.80,0004.27,0003.63
2022-12-15 22:38:00,,0820.6,4.96,0.00,21.7,20.3,00.0,30.6,23.5,07.0,0000.0,0012.01,0004.36,0003.64
2022-12-15 22:39:00,,0820.7,5.05,0.00,21.7,20.2,00.0,30.6,23.4,06.9,0000.0,0011.62,0004.38,0003.65
2022-12-15 22:40:00,,0820.7,4.95,0.00,21.7,20.1,00.0,30.6,23.4,06.9,0000.0,0011.80,0004.39,0003.66
2022-12-15 22:41:00,,0820.7,5.04,0.00,21.7,20.1,00.0,30.6,23.4,07.0,0000.0,0011.82,0004.43,0003.67
2022-12-15 22:42:00,,0820.7,4.96,0.00,21.7,20.1,00.0,30.6,23.4,07.0,0000.0,0012.06,0004.42,0003.68
2022-12-15 22:43:00,,0820.7,5.06,0.00,21.6,20.0,00.0,30.6,23.3,06.9,0000.0,0012.15,0004.43,0003.70
2022-12-15 22:44:00,,0820.8,4.98,0.00,21.6,20.0,00.0,30.6,23.3,06.9,0000.0,0012.78,0004.47,0003.70
2022-12-15 22:45:00,,0820.8,4.97,0.00,21.6,19.9,00.0,30.6,23.2,06.9,0000.0,0012.95,0004.43,0003.71
2022-12-15 22:46:00,,0820.7,5.05,0.00,21.5,19.7,00.0,30.6,23.1,06.6,0000.0,0012.34,0004.37,0003.67
2022-12-15 22:47:00,,0820.6,4.98,0.00,21.5,19.6,00.0,30.5,23.1,06.3,0000.0,0012.20,0004.26,0003.57
2022-12-15 22:48:00,,0820.7,4.98,0.00,21.5,19.6,00.0,30.5,23.1,06.2,0000.0,0012.21,0004.12,0003.47
2022-12-15 22:49:00,,0820.7,5.05,0.00,21.4,19.7,00.0,30.5,23.1,06.2,0000.0,0011.21,0003.90,0003.35
2022-12-15 22:50:00,,0820.7,4.98,0.00,21.4,19.7,00.0,30.5,23.1,06.2,0000.0,0010.92,0003.71,0003.24
2022-12-15 22:51:00,,0820.7,4.98,0.00,21.4,19.8,00.0,30.4,23.1,06.2,0000.0,0010.45,0003.55,0003.10
2022-12-15 22:52:00,,0820.7,5.04,0.00,21.4,19.8,00.0,30.4,23.1,06.3,0000.0,0009.85,0003.38,0002.90
2022-12-15 22:53:00,,0820.8,4.96,0.00,21.4,19.8,00.0,30.4,23.2,06.3,0000.0,0008.94,0003.24,0002.69
2022-12-15 22:54:00,,0820.8,5.05,0.00,21.4,19.9,00.0,30.4,23.2,06.3,0000.0,0008.52,0003.04,0002.47
2022-12-15 22:55:00,,0820.8,4.95,0.00,21.5,20.3,00.0,30.4,23.3,06.2,0000.0,0007.87,0002.70,0002.27
2022-12-15 22:56:00,,0820.8,5.01,0.00,21.6,21.5,00.0,30.3,23.5,06.2,0000.0,0006.94,0002.41,0002.07
2022-12-15 22:57:00,,0820.8,5.02,0.00,21.7,21.9,00.0,30.4,23.7,06.2,0000.0,0006.55,0002.21,0001.94
2022-12-15 22:58:00,,0820.8,4.96,0.00,21.8,21.7,00.0,30.4,23.7,06.2,0000.0,0005.66,0002.18,0001.92
2022-12-15 22:59:00,,0820.8,5.00,0.00,21.8,21.4,00.0,30.5,23.7,06.2,0000.0,0003.41,0002.08,0001.91
